Pine Ridge, SD

2:51 AM MDT on March 23, 2017 (GMT -0600)
Pine Ridge

Weather History for KIEN - January, 2013

Change the Weather History Date:

Sunday, January 27, 2013

  Actual Average Record
Temperature  
Mean Temperature 40 °F 24 °F  
Max Temperature 52 °F 38 °F 67 °F (2015)
Min Temperature 27 °F 11 °F -26 °F (2009)
Degree Days  
Heating Degree Days 25 41  
Month to date heating degree days 1143 1122  
Since 1 July heating degree days 3946 4112  
Cooling Degree Days 0 0  
Month to date cooling degree days 0 0  
Year to date cooling degree days 0 0  
Moisture  
Dew Point 32 °F    
Average Humidity 80    
Maximum Humidity 92    
Minimum Humidity 68    
Precipitation  
Precipitation T in 0.01 in 0.11 in (1999)
Month to date precipitation 0.64 0.26  
Year to date precipitation 0.64 0.26  
Sea Level Pressure  
Sea Level Pressure 29.74 in    
Wind  
Wind Speed 2 mph (NNW)    
Max Wind Speed 14 mph    
Max Gust Speed 16 mph    
Visibility 10 miles    
Events      
T = Trace of Precipitation, MM = Missing Value Source: NWS Daily Summary

Daily Weather History Graph

Daily Weather History Graph

Search for Another Location

Airport or City:

Trip Planner

Search our weather history database for the weather conditions in past years. The results will help you decide how hot, cold, wet, or windy it might be!

Date:

Astronomy

Jan. 27, 2013 Rise Set
Actual Time 7:09 AM MST 4:56 PM MST
Civil Twilight 6:39 AM MST 5:26 PM MST
Nautical Twilight 6:05 AM MST 6:01 PM MST
Astronomical Twilight 5:31 AM MST 6:34 PM MST
Moon 5:55 PM MST (1/27) 7:01 AM MST (1/27)
Length of Visible Light 10h 47m
Length of Day
9h 46m
Full, 100% of the Moon is Illuminated
Jan 27
Full
Feb 3
Last Quarter
Feb 10
New
Feb 17
First Quarter
Feb 25
Full

Hourly Weather History & Observations

Time (MST) Temp. Windchill Dew Point Humidity Pressure Visibility Wind Dir Wind Speed Gust Speed Precip Events Conditions
12:52 AM 33.1 °F - 28.9 °F 85% 29.75 in 10.0 mi Calm Calm - N/A   Clear
1:52 AM 32.0 °F 28.7 °F 28.9 °F 88% 29.73 in 10.0 mi ESE 3.5 mph - N/A   Clear
2:52 AM 33.1 °F 27.7 °F 30.0 °F 89% 29.72 in 10.0 mi East 5.8 mph - N/A   Scattered Clouds
3:52 AM 34.0 °F - 30.0 °F 85% 29.72 in 10.0 mi Calm Calm - N/A   Overcast
4:52 AM 35.1 °F - 30.0 °F 82% 29.73 in 10.0 mi Calm Calm - N/A   Overcast
5:52 AM 37.0 °F - 30.0 °F 76% 29.73 in 10.0 mi Calm Calm - N/A   Overcast
6:52 AM 36.0 °F - 30.9 °F 82% 29.73 in 10.0 mi Calm Calm - N/A   Overcast
7:52 AM 37.0 °F 34.5 °F 33.1 °F 86% 29.74 in 10.0 mi NW 3.5 mph - N/A   Overcast
8:52 AM 39.9 °F - 36.0 °F 86% 29.74 in 10.0 mi Calm Calm - N/A   Overcast
9:52 AM 39.9 °F 37.8 °F 36.0 °F 86% 29.75 in 10.0 mi SSW 3.5 mph - 0.00 in   Overcast
10:52 AM 41.0 °F 39.0 °F 36.0 °F 82% 29.74 in 10.0 mi West 3.5 mph - N/A   Overcast
11:52 AM 44.1 °F - 37.9 °F 79% 29.70 in 10.0 mi Calm Calm - 0.00 in   Overcast
12:52 PM 44.1 °F - 39.0 °F 82% 29.69 in 10.0 mi Calm Calm - N/A   Overcast
1:52 PM 46.9 °F - 39.0 °F 74% 29.67 in 10.0 mi Calm Calm - N/A   Overcast
2:52 PM 50.0 °F - 41.0 °F 71% 29.66 in 10.0 mi Calm Calm - N/A   Partly Cloudy
3:52 PM 52.0 °F - 41.0 °F 66% 29.67 in 10.0 mi Calm Calm - N/A   Clear
4:52 PM 41.0 °F 35.8 °F 33.1 °F 73% 29.72 in 10.0 mi NW 8.1 mph - N/A   Clear
5:52 PM 37.0 °F 32.4 °F 30.9 °F 79% 29.75 in 10.0 mi SSW 5.8 mph - N/A   Clear
6:52 PM 34.0 °F - 28.9 °F 82% 29.79 in 10.0 mi Calm Calm - N/A   Clear
7:52 PM 35.1 °F 30.1 °F 28.0 °F 76% 29.78 in 10.0 mi NNE 5.8 mph - N/A   Clear
8:52 PM 32.0 °F - 27.0 °F 82% 29.80 in 10.0 mi Calm Calm - N/A   Clear
9:52 PM 27.0 °F - 25.0 °F 92% 29.82 in 10.0 mi Calm Calm - N/A   Clear
10:52 PM 28.0 °F 21.7 °F 26.1 °F 92% 29.81 in 10.0 mi ENE 5.8 mph - N/A   Overcast
11:38 PM 28.4 °F - 26.6 °F 93% 29.76 in 10.0 mi Calm Calm - N/A   Mostly Cloudy
11:52 PM 28.9 °F 25.2 °F 26.1 °F 89% 29.81 in 10.0 mi NNW 3.5 mph - N/A   Mostly Cloudy